Powrót do katalogu

STARLINK-32501

AktywnyŁącznośćVLEO
NORAD 61890·PAYLOAD·🇺🇸 United States

Wystrzelony Nov 9, 2024 z Vandenberg Space Force Base

Loading…

Następne Przeloty (najbliższe 24 godziny)

TLE

ŚwieżeSource: CelesTrak SupGP

Epoka: Sep 14, 2026, 22:29 UTC

1 61890C 24204S   26257.93729167  .00013458  00000+0  39761-3 0  2578
2 61890  53.1589 324.0117 0001195  89.9764 105.6236 15.34383913    18

Śledź STARLINK-32501 w czasie rzeczywistym z AllMySat

Download on the App Store